Orbital Elements at Epoch 2459000.5 (2020-May-31.0) TDB
Reference: JPL 28 (heliocentric ecliptic J2000)
Element | Value | Uncertainty (1-sigma) | Units |
e | .07378725410124239 | 3.9526e-08 | |
a | 2.18338319271363 | 5.9411e-09 | au |
q | 2.022277342272488 | 8.5685e-08 | au |
i | 3.991357548165817 | 3.6617e-06 | deg |
node | 156.3078529765514 | 5.2363e-05 | deg |
peri | 70.68704859794083 | 5.6605e-05 | deg |
M | 96.9255503417902 | 2.213e-05 | deg |
tp | 2458683.229899619186 (2019-Jul-18.72989962) | 7.2283e-05 | TDB |
period | 1178.40172931004 3.23 | 4.8098e-06 1.317e-08 | d yr |
n | .3054985333488791 | 1.2469e-09 | deg/d |
Q | 2.344489043154772 | 6.3795e-09 | au |
|
| | Orbit Determination Parameters
Additional Information
|